Tracking 30922 objects as of 2-Jul-2025
HD Live streaming from Space Station
objects crossing your sky now

UM5-EOSAT

Track UM5-EOSAT now!
10-day predictions


NORAD ID: 60555
Int'l Code: 2024-149CR
Perigee: 572.9 km
Apogee: 585.4 km
Inclination: 97.7 °
Period: 96.1 minutes
Semi major axis: 6950 km
RCS: Unknown
Launch date: August 16, 2024
Source: Morocco (MA)
Launch site: AIR FORCE WESTERN TEST RANGE (AFWTR)
Your satellite tracking list
Your tracking list is empty




NASA's NSSDC Master Catalog

Two Line Element Set (TLE):
1 60555U 24149CR  25182.88946320  .00002966  00000-0  25365-3 0  9996
2 60555  97.7162 260.4492 0009004 164.9426 195.2067 14.98353741 47700
Source of the keplerian elements: AFSPC